• In Russia
  • List of Countries
  • For 7 days
  • Water Temperature
  • Satellite Maps
  • Weather Map
  • Weather Widgets
  • user-avatar
    Login

    Hourly Weather Malanville

    Today, 21 October, Sunday

    Time Temperature Precipitation Wind Pressure Humidity
    00:00 +29°C° 0 mm 2 mps 742 mmHg 24%
    01:00 +28°C° 0 mm 1 mps 742 mmHg 27%
    02:00 +27°C° 0 mm 1 mps 742 mmHg 30%
    03:00 +26°C° 0 mm 1 mps 741 mmHg 33%
    04:00 +26°C° 0 mm 1 mps 742 mmHg 35%
    05:00 +26°C° 0 mm 1 mps 742 mmHg 37%
    06:00 +26°C° 0 mm 1 mps 742 mmHg 38%
    07:00 +29°C° 0 mm 1 mps 742 mmHg 32%
    08:00 +32°C° 0 mm 2 mps 743 mmHg 26%
    09:00 +37°C° 0 mm 2 mps 743 mmHg 19%
    10:00 +40°C° 0 mm 4 mps 742 mmHg 16%
    11:00 +42°C° 0 mm 5 mps 742 mmHg 12%
    12:00 +45°C° 0 mm 6 mps 741 mmHg 8%
    13:00 +45°C° 0 mm 6 mps 741 mmHg 8%
    14:00 +45°C° 0 mm 5 mps 740 mmHg 8%
    15:00 +45°C° 0 mm 5 mps 739 mmHg 8%
    16:00 +42°C° 0 mm 4 mps 739 mmHg 9%
    17:00 +38°C° 0 mm 3 mps 740 mmHg 11%
    18:00 +35°C° 0 mm 2 mps 740 mmHg 13%
    19:00 +34°C° 0 mm 2 mps 741 mmHg 15%
    20:00 +32°C° 0 mm 2 mps 741 mmHg 16%
    21:00 +31°C° 0 mm 2 mps 742 mmHg 18%
    22:00 +31°C° 0 mm 2 mps 742 mmHg 20%
    23:00 +30°C° 0 mm 2 mps 742 mmHg 22%

    Tomorrow, 22 October, Monday

    Time Temperature Precipitation Wind Pressure Humidity
    00:00 +29°C° 0 mm 1 mps 742 mmHg 24%
    01:00 +29°C° 0 mm 2 mps 741 mmHg 26%
    02:00 +28°C° 0 mm 2 mps 741 mmHg 28%
    03:00 +28°C° 0 mm 2 mps 741 mmHg 30%
    04:00 +27°C° 0 mm 1 mps 741 mmHg 34%
    05:00 +27°C° 0 mm 1 mps 741 mmHg 37%
    06:00 +27°C° 0 mm 1 mps 742 mmHg 40%
    07:00 +29°C° 0 mm 2 mps 742 mmHg 37%
    08:00 +32°C° 0 mm 2 mps 743 mmHg 34%
    09:00 +36°C° 0 mm 2 mps 743 mmHg 31%
    10:00 +39°C° 0 mm 2 mps 743 mmHg 26%
    11:00 +41°C° 0 mm 1 mps 742 mmHg 22%
    12:00 +43°C° 0 mm 1 mps 741 mmHg 18%
    13:00 +43°C° 0 mm 1 mps 741 mmHg 16%
    14:00 +43°C° 0 mm 2 mps 740 mmHg 14%
    15:00 +44°C° 0 mm 3 mps 739 mmHg 12%
    16:00 +40°C° 0 mm 2 mps 740 mmHg 15%
    17:00 +38°C° 0 mm 2 mps 740 mmHg 17%
    18:00 +34°C° 0 mm 1 mps 740 mmHg 20%
    19:00 +34°C° 0 mm 1 mps 741 mmHg 21%
    20:00 +33°C° 0 mm 1 mps 741 mmHg 21%
    21:00 +32°C° 0 mm 1 mps 742 mmHg 22%
    22:00 +32°C° 0 mm 1 mps 742 mmHg 23%
    23:00 +31°C° 0 mm 1 mps 742 mmHg 24%

    Day after tomorrow, 23 October, Tuesday

    Time Temperature Precipitation Wind Pressure Humidity
    00:00 +30°C° 0 mm 1 mps 742 mmHg 26%
    01:00 +30°C° 0 mm 1 mps 741 mmHg 27%
    02:00 +29°C° 0 mm 2 mps 741 mmHg 29%
    03:00 +29°C° 0 mm 2 mps 741 mmHg 31%
    04:00 +28°C° 0 mm 2 mps 741 mmHg 36%
    05:00 +28°C° 0 mm 2 mps 742 mmHg 42%
    06:00 +27°C° 0 mm 2 mps 742 mmHg 47%
    07:00 +30°C° 0 mm 2 mps 743 mmHg 43%
    08:00 +34°C° 0 mm 2 mps 743 mmHg 38%
    09:00 +37°C° 0 mm 2 mps 744 mmHg 34%
    10:00 +39°C° 0 mm 2 mps 743 mmHg 28%
    11:00 +41°C° 0 mm 1 mps 742 mmHg 22%
    12:00 +44°C° 0 mm 1 mps 742 mmHg 16%
    13:00 +45°C° 0 mm 2 mps 741 mmHg 14%
    14:00 +45°C° 0 mm 3 mps 740 mmHg 13%
    15:00 +45°C° 0 mm 4 mps 740 mmHg 11%
    16:00 +42°C° 0 mm 3 mps 740 mmHg 14%
    17:00 +39°C° 0 mm 2 mps 740 mmHg 16%
    18:00 +35°C° 0 mm 1 mps 740 mmHg 19%
    19:00 +34°C° 0 mm 1 mps 741 mmHg 20%
    20:00 +33°C° 0 mm 1 mps 741 mmHg 22%
    21:00 +33°C° 0 mm 1 mps 742 mmHg 23%
    22:00 +32°C° 0 mm 2 mps 742 mmHg 25%
    23:00 +31°C° 0 mm 2 mps 742 mmHg 27%

    24 October, Wednesday

    Time Temperature Precipitation Wind Pressure Humidity
    00:00 +31°C° 0 mm 2 mps 742 mmHg 29%
    01:00 +30°C° 0 mm 2 mps 741 mmHg 33%
    02:00 +30°C° 0 mm 3 mps 741 mmHg 36%
    03:00 +29°C° 0 mm 3 mps 741 mmHg 40%
    04:00 +29°C° 0 mm 3 mps 741 mmHg 47%
    05:00 +28°C° 0 mm 3 mps 742 mmHg 55%
    06:00 +28°C° 0 mm 2 mps 742 mmHg 62%
    07:00 +31°C° 0 mm 3 mps 742 mmHg 56%
    08:00 +34°C° 0 mm 3 mps 743 mmHg 49%
    09:00 +37°C° 0 mm 3 mps 743 mmHg 43%
    10:00 +39°C° 0 mm 3 mps 742 mmHg 36%
    11:00 +41°C° 0 mm 2 mps 742 mmHg 29%
    12:00 +43°C° 0 mm 2 mps 741 mmHg 22%
    13:00 +43°C° 0 mm 2 mps 740 mmHg 20%
    14:00 +45°C° 0 mm 3 mps 740 mmHg 17%
    15:00 +45°C° 0 mm 3 mps 739 mmHg 15%
    16:00 +43°C° 0 mm 3 mps 739 mmHg 18%
    17:00 +39°C° 0 mm 3 mps 740 mmHg 21%
    18:00 +37°C° 0 mm 2 mps 740 mmHg 24%
    19:00 +36°C° 0 mm 2 mps 740 mmHg 27%
    20:00 +36°C° 0 mm 2 mps 741 mmHg 30%
    21:00 +35°C° 0 mm 2 mps 742 mmHg 33%
    22:00 +34°C° 0 mm 3 mps 741 mmHg 36%
    23:00 +34°C° 0 mm 3 mps 741 mmHg 39%

    25 October, Thursday

    Time Temperature Precipitation Wind Pressure Humidity
    00:00 +33°C° 0 mm 4 mps 741 mmHg 42%
    01:00 +32°C° 0 mm 4 mps 741 mmHg 49%
    02:00 +32°C° 0 mm 4 mps 741 mmHg 56%
    03:00 +30°C° 0 mm 4 mps 740 mmHg 62%
    04:00 +30°C° 0 mm 3 mps 741 mmHg 66%
    05:00 +29°C° 0 mm 3 mps 741 mmHg 70%
    06:00 +29°C° 0 mm 3 mps 742 mmHg 74%
    07:00 +31°C° 0 mm 3 mps 742 mmHg 66%
    08:00 +34°C° 0 mm 3 mps 743 mmHg 57%
    09:00 +36°C° 0 mm 3 mps 743 mmHg 49%
    10:00 +38°C° 0 mm 3 mps 742 mmHg 42%
    11:00 +40°C° 0 mm 2 mps 741 mmHg 35%
    12:00 +42°C° 0 mm 1 mps 741 mmHg 27%
    13:00 +43°C° 0 mm 1 mps 740 mmHg 24%
    14:00 +43°C° 0 mm 2 mps 739 mmHg 20%
    15:00 +45°C° 0 mm 2 mps 739 mmHg 16%
    16:00 +42°C° 0 mm 2 mps 739 mmHg 19%
    17:00 +40°C° 0 mm 2 mps 739 mmHg 21%
    18:00 +38°C° 0 mm 2 mps 740 mmHg 23%
    19:00 +37°C° 0 mm 2 mps 740 mmHg 26%
    20:00 +36°C° 0 mm 2 mps 741 mmHg 28%
    21:00 +35°C° 0 mm 2 mps 741 mmHg 31%
    22:00 +35°C° 0 mm 3 mps 741 mmHg 34%
    23:00 +34°C° 0 mm 3 mps 741 mmHg 38%

    26 October, Friday

    Time Temperature Precipitation Wind Pressure Humidity
    00:00 +34°C° 0 mm 3 mps 741 mmHg 41%
    01:00 +33°C° 0 mm 3 mps 741 mmHg 45%
    02:00 +33°C° 0 mm 3 mps 741 mmHg 49%
    03:00 +31°C° 0 mm 3 mps 740 mmHg 52%
    04:00 +31°C° 0 mm 3 mps 741 mmHg 56%
    05:00 +30°C° 0 mm 3 mps 741 mmHg 60%
    06:00 +30°C° 0 mm 3 mps 741 mmHg 63%
    07:00 +33°C° 0 mm 3 mps 742 mmHg 57%
    08:00 +35°C° 0 mm 3 mps 742 mmHg 51%
    09:00 +37°C° 0 mm 3 mps 742 mmHg 45%
    10:00 +39°C° 0 mm 2 mps 742 mmHg 38%
    11:00 +41°C° 0 mm 2 mps 741 mmHg 31%
    12:00 +43°C° 0 mm 1 mps 740 mmHg 24%
    13:00 +45°C° 0 mm 2 mps 740 mmHg 21%
    14:00 +45°C° 0 mm 2 mps 739 mmHg 19%
    15:00 +45°C° 0 mm 3 mps 739 mmHg 16%
    16:00 +43°C° 0 mm 3 mps 739 mmHg 18%
    17:00 +40°C° 0 mm 3 mps 739 mmHg 21%
    18:00 +38°C° 0 mm 2 mps 740 mmHg 23%
    19:00 +37°C° 0 mm 2 mps 740 mmHg 25%
    20:00 +36°C° 0 mm 2 mps 740 mmHg 27%
    21:00 +36°C° 0 mm 2 mps 741 mmHg 29%
    22:00 +35°C° 0 mm 2 mps 741 mmHg 31%
    23:00 +35°C° 0 mm 2 mps 741 mmHg 33%
    Show more